Location: Thompson
(55.7500°N, 97.8670°W)
Time: 04:16:39
(UTC-05:00)

Cosmos 1666 - Visible Passes

Search period start: 26 March 2017 00:00
Search period end: 05 April 2017 00:00
Orbit: 501 x 526 km, 82.5° (Epoch: 24 March)

Date Brightness Start Highest point End Pass type
(mag) Time Alt. Az. Time Alt. Az. Time Alt. Az.
26 Mar 6.2 03:47:37 10° NE 03:48:26 11° NE 03:49:15 10° ENE visible
26 Mar 3.2 05:21:06 10° N 05:24:58 63° ENE 05:28:49 10° SSE visible
26 Mar 6.6 20:58:25 10° WNW 20:58:41 10° NW 20:58:57 10° NW visible
27 Mar 3.5 05:05:28 10° N 05:09:17 53° ENE 05:13:05 10° SSE visible
27 Mar 6.2 20:41:31 10° WNW 20:42:54 12° NW 20:44:18 10° NW visible
28 Mar 3.9 04:49:50 10° N 04:53:35 45° ENE 04:57:20 10° SE visible
28 Mar 3.9 06:25:58 10° NW 06:29:03 23° W 06:32:06 10° SW visible
29 Mar 4.2 04:34:13 10° N 04:37:53 38° ENE 04:41:32 10° SE visible
29 Mar 3.7 06:10:10 10° NNW 06:13:27 26° W 06:16:43 10° SSW visible
30 Mar 4.5 04:18:37 10° N 04:22:11 33° ENE 04:25:43 10° SE visible
30 Mar 3.5 05:54:23 10° NNW 05:57:49 31° W 06:01:17 10° SSW visible
31 Mar 4.7 04:03:02 10° N 04:06:27 28° ENE 04:09:52 10° SE visible
31 Mar 3.3 05:38:37 10° NNW 05:42:13 36° W 05:45:48 10° SSW visible
01 Apr 5.0 03:47:28 10° N 03:50:43 25° ENE 03:53:58 10° ESE visible
01 Apr 3.1 05:22:52 10° NNW 05:26:35 43° W 05:30:03 11° SSW visible
02 Apr 5.2 03:31:55 10° NNE 03:34:59 21° ENE 03:38:02 10° ESE visible
02 Apr 2.9 05:07:09 10° NNW 05:10:56 51° W 05:13:47 17° SSW visible
03 Apr 5.3 03:16:24 10° NNE 03:19:14 19° ENE 03:22:03 10° ESE visible
03 Apr 2.7 04:51:27 10° NNW 04:55:18 61° W 04:57:39 22° S visible
04 Apr 5.5 03:00:54 10° NNE 03:03:28 16° ENE 03:06:00 10° E visible
04 Apr 2.6 04:35:44 10° NNW 04:39:38 73° W 04:41:36 28° S visible
